This is the latest recevied weather packets stored in our database for station/object NEWPRT. If no packets are shown the sender has not sent any weather packets the latest 10 day(s).
| Time | Temp. | Humidity | Pressure | Rain* | Wind** | Luminosity | Snow |
|---|---|---|---|---|---|---|---|
| 1778072697 | - | 63% | 1021 hPa | 0 mm | - | - | - |
| 1778072373 | - | 63% | 1020.8 hPa | 0 mm | - | - | - |
| 1778072050 | - | 66% | 1021.2 hPa | 0 mm | - | - | - |
| 1778071727 | - | 66% | 1021.1 hPa | 0 mm | - | - | - |
| 1778071404 | - | 66% | 1021 hPa | 0 mm | - | - | - |
| 1778071081 | - | 66% | 1021 hPa | 0 mm | - | - | - |
| 1778070759 | - | 63% | 1020.5 hPa | 0 mm | - | - | - |
| 1778070436 | - | 64% | 1020.5 hPa | 0 mm | - | - | - |
| 1778070113 | - | 65% | 1020.3 hPa | 0 mm | - | - | - |
| 1778069789 | - | 67% | 1020.6 hPa | 0 mm | - | - | - |
| 1778069467 | - | 66% | 1020.9 hPa | 0 mm | - | - | - |
| 1778069144 | - | 66% | 1020.8 hPa | 0 mm | - | - | - |
| 1778068820 | - | 66% | 1020.6 hPa | 0 mm | - | - | - |
| 1778068497 | - | 66% | 1020.9 hPa | 0 mm | - | - | - |
| 1778068175 | - | 66% | 1021 hPa | 0 mm | - | - | - |
| 1778067853 | - | 66% | 1020.8 hPa | 0 mm | - | - | - |
| 1778067528 | - | 65% | 1020.9 hPa | 0 mm | - | - | - |
| 1778067205 | - | 66% | 1020.6 hPa | 0 mm | - | - | - |
| 1778066882 | - | 66% | 1020.8 hPa | 0 mm | - | - | - |
| 1778066559 | - | 66% | 1020.8 hPa | 0 mm | - | - | - |
| 1778066236 | - | 67% | 1020.6 hPa | 0 mm | - | - | - |
| 1778065913 | - | 67% | 1020.6 hPa | 0 mm | - | - | - |
| 1778065590 | - | 67% | 1020.6 hPa | 0 mm | - | - | - |
| 1778065267 | - | 66% | 1020.6 hPa | 0 mm | - | - | - |
| 1778064944 | - | 66% | 1020.4 hPa | 0 mm | - | - | - |
* Rain latest hour (hover to see other rain measurements)
** Current wind speed in m/s (hover to see current wind gust speed)